Flag for U.S.A. Weather past 2 weeks in Wailuku, Hawaii, U.S.A.

Now
75 °F

Passing clouds.


Feels Like: 77 °F
Forecast: 74 / 85 °F
Wind: 6 mph from Northeast

Location: Kahului Airport

Current Time: Jul 7, 2015 at 5:45:47 AM

Latest Report: Jul 7, 2015 at 5:17 AM


Visibility: 10 mi

Pressure: 29.98 "Hg

Humidity: 74%

Dew point: 66 °F

Location of WailukuLocation

Historic Weather in Wailuku — Graph

°F

Wailuku temperature yesterday

Maximum temperature yesterday: 89 °F (at 11:54 AM)
Minimum temperature yesterday: 74 °F (at 4:54 AM)
Average temperature yesterday: 81 °F

Past Weeks' High & Low Weather Summary

 TemperatureHumidityPressure
High92 °F (Jun 28, 12:54 PM)90% (Jun 28, 5:54 AM)30.08 "Hg (Jun 28, 5:54 AM)
Low68 °F (Jun 27, 5:54 AM)42% (Jul 6, 11:54 AM)29.85 "Hg (Jul 1, 4:54 PM)
Average80 °F70%29.98 "Hg
* Reported Jun 22 4:54 AM — Jul 7 4:54 AM, Wailuku, Weather by CustomWeather, © 2015

Note: Actual official high and low records may vary slightly from our data, if they occured in-between our weather recording intervals... More about our weather records

Advertising

Wailuku weather history for previous 24 hours

 ConditionsComfort  
Time TempWeatherWind HumidityBarometerVisibility
4:54 AM
Tue, Jul 7
75 °FClear.7 mph76%29.99 "Hg10 mi
3:54 AM75 °FClear.No wind74%29.98 "Hg10 mi
2:54 AM76 °FClear.14 mph74%29.98 "Hg10 mi
1:54 AM77 °FClear.15 mph74%29.99 "Hg10 mi
12:54 AM78 °FPassing clouds.16 mph69%30.00 "Hg10 mi
11:54 PM
Mon, Jul 6
77 °FPassing clouds.13 mph74%30.01 "Hg10 mi
10:54 PM77 °FPassing clouds.10 mph74%30.03 "Hg10 mi
9:54 PM77 °FClear.8 mph71%30.03 "Hg10 mi
8:54 PM78 °FPassing clouds.13 mph71%30.02 "Hg10 mi
7:54 PM78 °FPassing clouds.10 mph69%30.01 "Hg10 mi
6:54 PM80 °FScattered clouds.14 mph67%29.98 "Hg10 mi
5:54 PM83 °FScattered clouds.18 mph61%29.96 "Hg10 mi
4:54 PM85 °FSunny.21 mph53%29.94 "Hg10 mi
3:54 PM86 °FScattered clouds.25 mph53%29.95 "Hg10 mi
2:54 PM87 °FScattered clouds.24 mph55%29.96 "Hg10 mi
1:54 PM87 °FScattered clouds.25 mph53%29.96 "Hg10 mi
12:54 PM89 °FScattered clouds.24 mph45%29.97 "Hg10 mi
11:54 AM89 °FLight rain. Broken clouds.17 mph42%29.99 "Hg10 mi
10:54 AM84 °FScattered clouds.14 mph55%30.01 "Hg10 mi
9:54 AM85 °FScattered clouds.24 mph57%30.00 "Hg10 mi
8:54 AM84 °FScattered clouds.18 mph59%30.01 "Hg10 mi
7:54 AM81 °FScattered clouds.13 mph65%30.00 "Hg10 mi
6:54 AM77 °FScattered clouds.7 mph69%30.00 "Hg10 mi
5:54 AM74 °FScattered clouds.6 mph76%29.98 "Hg10 mi
Weather by CustomWeather, © 2015

See weather overviewHow to use our weather pages